#timestamp,LO_Frequency,Hit,StdDev 
1515351615.2,286047004.3,N
1515351635.1,286047002.2,N
1515351636.0,286047002.2,N
1515351655.8,286047002.7,N
1515351675.6,286046998.1,N
1515351695.5,286047001.8,N
1515351715.3,286047001.5,N
1515351735.2,286046994.9,N
1515351755.9,286046998.2,N
1515351775.7,286046999.4,N
1515351795.6,286047000.1,N
1515351815.4,286047005.2,N
1515351835.2,286047001.4,N
1515351855.1,286046999.1,N
1515351856.0,286046999.1,N
1515351875.8,286046995.4,N
1515351895.7,286046995.5,N
1515351915.5,286046999.1,N
1515351935.3,286046995.6,N
1515351955.2,286046995.2,N
1515351975.0,286047001.1,N
1515351975.9,286047001.1,N
1515351995.8,286047001.6,N
1515352015.6,286047000.9,N
1515352035.4,286047001.7,N
1515352055.3,286047004.4,N
1515352075.1,286046999.7,N
1515352095.9,286047005.9,N
1515352115.7,286047002.7,N
1515352135.5,286047005.1,N
1515352155.4,286047003.9,N
1515352175.2,286047007.0,N
1515352195.0,286047005.6,N
1515352195.9,286047005.6,N
1515352215.8,286047008.9,N
1515352235.6,286047008.2,N
1515352255.5,286047006.1,N
1515352275.3,286047006.9,N
1515352295.1,286047003.1,N
1515352315.9,286046999.3,N
1515352335.7,286047000.8,N
1515352355.5,286047004.2,N
1515352375.4,286047004.0,N
1515352395.2,286046999.9,N
1515352415.1,286047000.3,N
1515352416.0,286047000.3,N
1515352435.8,286047000.1,N
1515352455.6,286046995.9,N
1515352475.5,286046996.4,N
1515352495.3,286046999.6,N
1515352515.2,286046993.8,N
1515352535.9,286046996.3,N
1515352555.7,286047003.0,N
1515352575.6,286047004.7,N
1515352595.4,286047004.1,N
1515352615.2,286046997.4,N
1515352635.1,286047000.8,N
1515352636.0,286047000.8,N
1515352655.8,286047002.6,N
1515352675.7,286047004.5,N
1515352695.5,286047003.3,N
1515352715.3,286047001.4,N
1515352735.2,286047003.7,N
1515352755.0,286047008.5,N
1515352755.9,286047008.5,N
1515352775.8,286047011.0,N
1515352795.6,286047011.6,N
1515352815.4,286047008.3,N
1515352835.3,286047009.4,N
1515352855.1,286047010.7,N
1515352875.9,286047009.3,N
1515352895.7,286047014.8,Y
1515352915.5,286047015.1,P
1515352935.4,286047010.1,N
1515352955.2,286047011.2,N
1515352975.0,286047015.5,Y
1515352976.0,286047015.5,P
1515352995.8,286047003.7,N
1515353015.6,286046998.8,N
1515353035.5,286047000.9,N
1515353055.3,286047002.8,N
1515353075.1,286047005.4,N
1515353095.9,286047007.4,N
1515353115.7,286047003.8,N
1515353135.6,286047004.3,N
1515353155.4,286047003.3,N
1515353175.2,286047007.3,N
1515353195.1,286047005.4,N
1515353196.0,286047005.4,N
1515353215.8,286047004.8,N
1515353235.6,286047007.9,N
1515353255.5,286047010.2,N
1515353275.3,286047007.3,N
1515353295.2,286047008.9,N
1515353315.9,286047010.7,N
1515353335.7,286047010.6,N
1515353355.6,286047009.6,N
1515353375.4,286047008.9,N
1515353395.3,286047010.8,N
1515353415.1,286047010.5,N
1515353416.0,286047010.5,N
1515353435.8,286047007.1,N
1515353455.7,286047007.2,N
1515353475.5,286047006.0,N
1515353495.3,286047006.7,N
1515353515.2,286047006.4,N
1515353535.0,286047006.1,N
1515353535.9,286047006.1,N
1515353555.8,286047007.3,N
1515353575.6,286047006.7,N
1515353595.4,286047005.8,N
1515353615.3,286047001.8,N
1515353635.1,286047005.4,N
1515353655.9,286047005.8,N
1515353675.7,286047004.6,N
1515353695.5,286047007.4,Y
1515353715.4,286047000.0,P
1515353735.2,286047000.4,N
1515353755.0,286046993.5,N
1515353756.0,286046993.5,N
1515353775.8,286046994.3,N
1515353795.6,286046996.5,N
1515353815.5,286046996.5,N
1515353835.3,286046999.1,N
1515353855.1,286046996.7,N
1515353875.9,286046995.7,N
1515353895.7,286046993.1,N
1515353915.6,286046990.6,N
1515353935.4,286046990.8,N
1515353955.2,286046992.8,N
1515353975.1,286046996.3,N
1515353976.0,286046996.3,N
1515353995.8,286046998.9,N
1515354015.6,286046993.8,N
1515354035.5,286046990.2,N
1515354055.3,286046987.4,Y
1515354075.2,286046986.3,P
1515354095.0,286046996.8,N
1515354095.9,286046996.8,N
1515354115.7,286046998.0,N
1515354135.6,286046997.0,N
1515354155.4,286046995.0,N
1515354175.3,286046996.6,N
1515354195.1,286046995.4,N
1515354196.0,286046995.4,N
1515354215.8,286046992.3,N
1515354235.7,286046986.9,Y
1515354255.5,286046992.2,P
1515354275.4,286046994.6,P
1515354295.2,286046989.9,P
1515354315.0,286046990.9,Y
1515354315.9,286046990.9,P
1515354335.8,286046998.3,N
1515354355.6,286046998.2,N
1515354375.5,286047004.4,N
1515354395.3,286047004.6,N
1515354415.1,286047007.7,N
1515354435.9,286047007.4,N
1515354455.7,286047006.1,N
1515354475.5,286047004.3,N
1515354495.4,286047007.1,N
1515354515.2,286047004.3,N
1515354535.1,286047005.7,N
1515354536.0,286047005.7,N
1515354555.8,286047007.3,N
1515354575.6,286047005.3,N
1515354595.5,286047003.2,N
1515354615.3,286047006.6,N
1515354635.1,286047010.5,N
1515354655.9,286047010.8,N
1515354675.7,286047009.2,N
1515354695.6,286047006.1,N
1515354715.4,286047007.1,N
1515354735.2,286047006.9,N
1515354755.1,286047007.4,N
1515354756.0,286047007.4,N
1515354775.8,286047009.9,N
1515354795.7,286047007.7,N
1515354815.5,286047003.2,N
1515354835.3,286047002.8,N
1515354855.2,286047005.5,N
1515354875.0,286047007.5,N
1515354875.9,286047007.5,N
1515354895.8,286047006.3,N
1515354915.6,286047010.3,Y
1515354935.4,286047005.1,P
1515354955.3,286047005.1,P
1515354975.1,286047009.3,P
1515354995.8,286047009.2,Y
1515355015.7,286047000.3,P
1515355035.5,286047001.2,N
1515355055.4,286047000.9,N
1515355075.2,286047001.5,N
1515355095.0,286047000.4,N
1515355095.9,286047000.4,N
1515355115.8,286046999.9,N
1515355135.6,286046996.7,N
1515355155.5,286046996.2,N
1515355175.3,286046998.4,N
1515355195.1,286046997.1,N
